Year,Month,Day,Hour,Minute,Value (Times are PST for windspeed in km/hr)
2008,02,08,00,00,20.30
2008,02,08,00,01,16.40
2008,02,08,00,02,15.50
2008,02,08,00,03,14.00
2008,02,08,00,04,20.30
2008,02,08,00,05,13.50
2008,02,08,00,06,21.90
2008,02,08,00,07,17.10
2008,02,08,00,08,16.30
2008,02,08,00,09,20.40
2008,02,08,00,10,9.50
2008,02,08,00,11,21.40
2008,02,08,00,12,20.80
2008,02,08,00,13,10.30
2008,02,08,00,14,23.50
2008,02,08,00,15,27.70
2008,02,08,00,16,18.00
2008,02,08,00,17,20.20
2008,02,08,00,18,20.30
2008,02,08,00,19,19.40
2008,02,08,00,20,13.00
2008,02,08,00,21,23.90
2008,02,08,00,22,19.90
2008,02,08,00,23,15.50
2008,02,08,00,24,12.60
2008,02,08,00,25,19.30
2008,02,08,00,26,13.70
2008,02,08,00,27,19.10
2008,02,08,00,28,11.70
2008,02,08,00,29,5.60
2008,02,08,00,30,27.10
2008,02,08,00,31,24.40
2008,02,08,00,32,17.30
2008,02,08,00,33,28.40
2008,02,08,00,34,11.80
2008,02,08,00,35,18.40
2008,02,08,00,36,14.70
2008,02,08,00,37,14.50
2008,02,08,00,38,16.00
2008,02,08,00,39,21.20
2008,02,08,00,40,14.50
2008,02,08,00,41,15.60
2008,02,08,00,42,16.20
2008,02,08,00,43,19.10
2008,02,08,00,44,26.40
2008,02,08,00,45,22.40
2008,02,08,00,46,19.10
2008,02,08,00,47,29.80
2008,02,08,00,48,25.30
2008,02,08,00,49,17.70
2008,02,08,00,50,30.70
2008,02,08,00,51,23.00
2008,02,08,00,52,25.00
2008,02,08,00,53,27.30
2008,02,08,00,54,25.70
2008,02,08,00,55,32.30
2008,02,08,00,56,25.60
2008,02,08,00,57,18.10
2008,02,08,00,58,17.50
2008,02,08,00,59,23.30
2008,02,08,01,00,27.80
2008,02,08,01,01,16.30
2008,02,08,01,02,23.50
2008,02,08,01,03,19.30
2008,02,08,01,04,24.70
2008,02,08,01,05,19.50
2008,02,08,01,06,18.00
2008,02,08,01,07,16.40
2008,02,08,01,08,16.50
2008,02,08,01,09,23.60
2008,02,08,01,10,15.00
2008,02,08,01,11,14.40
2008,02,08,01,12,14.80
2008,02,08,01,13,15.80
2008,02,08,01,14,14.60
2008,02,08,01,15,21.40
2008,02,08,01,16,17.70
2008,02,08,01,17,10.20
2008,02,08,01,18,16.20
2008,02,08,01,19,21.00
2008,02,08,01,20,15.20
2008,02,08,01,21,22.80
2008,02,08,01,22,14.80
2008,02,08,01,23,14.20
2008,02,08,01,24,19.50
2008,02,08,01,25,18.50
2008,02,08,01,26,19.30
2008,02,08,01,27,15.60
2008,02,08,01,28,9.70
2008,02,08,01,29,17.20
2008,02,08,01,30,23.90
2008,02,08,01,31,23.50
2008,02,08,01,32,7.50
2008,02,08,01,33,21.90
2008,02,08,01,34,16.20
2008,02,08,01,35,13.40
2008,02,08,01,36,21.70
2008,02,08,01,37,21.80
2008,02,08,01,38,25.50
2008,02,08,01,39,8.90
2008,02,08,01,40,28.30
2008,02,08,01,41,18.10
2008,02,08,01,42,17.50
2008,02,08,01,43,15.70
2008,02,08,01,44,21.30
2008,02,08,01,45,20.50
2008,02,08,01,46,23.20
2008,02,08,01,47,23.30
2008,02,08,01,48,17.80
2008,02,08,01,49,23.50
2008,02,08,01,50,22.00
2008,02,08,01,51,20.80
2008,02,08,01,52,23.60
2008,02,08,01,53,10.20
2008,02,08,01,54,12.10
2008,02,08,01,55,15.80
2008,02,08,01,56,32.50
2008,02,08,01,57,33.90
2008,02,08,01,58,20.50
2008,02,08,01,59,25.60
2008,02,08,02,00,17.30
2008,02,08,02,01,27.50
2008,02,08,02,02,28.80
2008,02,08,02,03,20.50
2008,02,08,02,04,19.40
2008,02,08,02,05,33.50
2008,02,08,02,06,26.40
2008,02,08,02,07,30.90
2008,02,08,02,08,23.30
2008,02,08,02,09,24.30
2008,02,08,02,10,27.60
2008,02,08,02,11,32.40
2008,02,08,02,12,28.90
2008,02,08,02,13,30.30
2008,02,08,02,14,23.30
2008,02,08,02,15,38.10
2008,02,08,02,16,22.60
2008,02,08,02,17,27.10
2008,02,08,02,18,22.00
2008,02,08,02,19,16.30
2008,02,08,02,20,17.60
2008,02,08,02,21,24.20
2008,02,08,02,22,13.10
2008,02,08,02,23,26.60
2008,02,08,02,24,20.50
2008,02,08,02,25,19.70
2008,02,08,02,26,23.80
2008,02,08,02,27,9.50
2008,02,08,02,28,23.30
2008,02,08,02,29,17.30
2008,02,08,02,30,18.60
2008,02,08,02,31,17.00
2008,02,08,02,32,14.70
2008,02,08,02,33,15.80
2008,02,08,02,34,20.50
2008,02,08,02,35,17.20
2008,02,08,02,36,18.70
2008,02,08,02,37,26.90
2008,02,08,02,38,20.60
2008,02,08,02,39,19.10
2008,02,08,02,40,23.70
2008,02,08,02,41,24.30
2008,02,08,02,42,16.20
2008,02,08,02,43,19.30
2008,02,08,02,44,19.10
2008,02,08,02,45,27.70
2008,02,08,02,46,29.90
2008,02,08,02,47,23.50
2008,02,08,02,48,18.70
2008,02,08,02,49,16.00
2008,02,08,02,50,21.70
2008,02,08,02,51,18.20
2008,02,08,02,52,14.30
2008,02,08,02,53,23.40
2008,02,08,02,54,19.40
2008,02,08,02,55,13.40
2008,02,08,02,56,27.50
2008,02,08,02,57,18.60
2008,02,08,02,58,22.90
2008,02,08,02,59,19.70
2008,02,08,03,00,12.90
2008,02,08,03,01,10.00
2008,02,08,03,02,12.70
2008,02,08,03,03,21.10
2008,02,08,03,04,16.20
2008,02,08,03,05,22.10
2008,02,08,03,06,11.50
2008,02,08,03,07,20.00
2008,02,08,03,08,13.50
2008,02,08,03,09,28.30
2008,02,08,03,10,28.60
2008,02,08,03,11,28.60
2008,02,08,03,12,27.90
2008,02,08,03,13,23.80
2008,02,08,03,14,13.30
2008,02,08,03,15,17.30
2008,02,08,03,16,20.60
2008,02,08,03,17,21.90
2008,02,08,03,18,26.60
2008,02,08,03,19,19.30
2008,02,08,03,20,29.40
2008,02,08,03,21,20.30
2008,02,08,03,22,13.90
2008,02,08,03,23,13.70
2008,02,08,03,24,22.30
2008,02,08,03,25,23.10
2008,02,08,03,26,16.00
2008,02,08,03,27,23.00
2008,02,08,03,28,16.70
2008,02,08,03,29,23.10
2008,02,08,03,30,14.10
2008,02,08,03,31,18.30
2008,02,08,03,32,16.00
2008,02,08,03,33,20.80
2008,02,08,03,34,20.40
2008,02,08,03,35,22.30
2008,02,08,03,36,27.60
2008,02,08,03,37,29.60
2008,02,08,03,38,24.20
2008,02,08,03,39,22.50
2008,02,08,03,40,24.60
2008,02,08,03,41,14.20
2008,02,08,03,42,17.10
2008,02,08,03,43,17.20
2008,02,08,03,44,14.10
2008,02,08,03,45,12.10
2008,02,08,03,46,18.20
2008,02,08,03,47,23.00
2008,02,08,03,48,21.80
2008,02,08,03,49,20.60
2008,02,08,03,50,25.90
2008,02,08,03,51,27.00
2008,02,08,03,52,28.10
2008,02,08,03,53,35.00
2008,02,08,03,54,29.40
2008,02,08,03,55,31.00
2008,02,08,03,56,27.50
2008,02,08,03,57,18.10
2008,02,08,03,58,22.50
2008,02,08,03,59,14.50
2008,02,08,04,00,26.60
2008,02,08,04,01,18.90
2008,02,08,04,02,21.20
2008,02,08,04,03,26.90
2008,02,08,04,04,22.40
2008,02,08,04,05,10.20
2008,02,08,04,06,31.40
2008,02,08,04,07,21.20
2008,02,08,04,08,20.80
2008,02,08,04,09,26.90
2008,02,08,04,10,27.70
2008,02,08,04,11,29.10
2008,02,08,04,12,24.50
2008,02,08,04,13,26.00
2008,02,08,04,14,20.20
2008,02,08,04,15,25.30
2008,02,08,04,16,27.50
2008,02,08,04,17,18.40
2008,02,08,04,18,17.30
2008,02,08,04,19,22.20
2008,02,08,04,20,19.20
2008,02,08,04,21,28.50
2008,02,08,04,22,20.00
2008,02,08,04,23,24.70
2008,02,08,04,24,23.00
2008,02,08,04,25,28.20
2008,02,08,04,26,16.80
2008,02,08,04,27,29.90
2008,02,08,04,28,27.00
2008,02,08,04,29,20.20
2008,02,08,04,30,22.50
2008,02,08,04,31,17.30
2008,02,08,04,32,25.20
2008,02,08,04,33,16.80
2008,02,08,04,34,20.20
2008,02,08,04,35,23.80
2008,02,08,04,36,13.90
2008,02,08,04,37,23.80
2008,02,08,04,38,17.00
2008,02,08,04,39,11.30
2008,02,08,04,40,18.30
2008,02,08,04,41,14.50
2008,02,08,04,42,13.60
2008,02,08,04,43,10.60
2008,02,08,04,44,12.30
2008,02,08,04,45,14.90
2008,02,08,04,46,22.20
2008,02,08,04,47,30.80
2008,02,08,04,48,26.20
2008,02,08,04,49,20.00
2008,02,08,04,50,16.20
2008,02,08,04,51,21.80
2008,02,08,04,52,23.20
2008,02,08,04,53,26.40
2008,02,08,04,54,15.10
2008,02,08,04,55,26.50
2008,02,08,04,56,19.50
2008,02,08,04,57,18.10
2008,02,08,04,58,22.60
2008,02,08,04,59,26.30
2008,02,08,05,00,17.10
2008,02,08,05,01,23.30
2008,02,08,05,02,18.30
2008,02,08,05,03,26.70
2008,02,08,05,04,16.60
2008,02,08,05,05,15.40
2008,02,08,05,06,22.50
2008,02,08,05,07,16.20
2008,02,08,05,08,26.50
2008,02,08,05,09,21.00
2008,02,08,05,10,18.00
2008,02,08,05,11,14.70
2008,02,08,05,12,18.30
2008,02,08,05,13,11.30
2008,02,08,05,14,22.30
2008,02,08,05,15,23.90
2008,02,08,05,16,16.90
2008,02,08,05,17,14.10
2008,02,08,05,18,17.10
2008,02,08,05,19,23.00
2008,02,08,05,20,20.80
2008,02,08,05,21,18.40
2008,02,08,05,22,17.90
2008,02,08,05,23,13.40
2008,02,08,05,24,27.00
2008,02,08,05,25,23.50
2008,02,08,05,26,11.60
2008,02,08,05,27,18.20
2008,02,08,05,28,18.90
2008,02,08,05,29,24.60
2008,02,08,05,30,21.40
2008,02,08,05,31,18.30
2008,02,08,05,32,19.50
2008,02,08,05,33,18.60
2008,02,08,05,34,29.60
2008,02,08,05,35,15.60
2008,02,08,05,36,15.30
2008,02,08,05,37,18.40
2008,02,08,05,38,14.00
2008,02,08,05,39,16.70
2008,02,08,05,40,15.80
2008,02,08,05,41,18.10
2008,02,08,05,42,19.60
2008,02,08,05,43,26.60
2008,02,08,05,44,23.00
2008,02,08,05,45,20.40
2008,02,08,05,46,19.70
2008,02,08,05,47,19.20
2008,02,08,05,48,14.30
2008,02,08,05,49,26.70
2008,02,08,05,50,17.70
2008,02,08,05,51,16.10
2008,02,08,05,52,23.10
2008,02,08,05,53,23.10
2008,02,08,05,54,29.90
2008,02,08,05,55,17.40
2008,02,08,05,56,17.00
2008,02,08,05,57,27.60
2008,02,08,05,58,25.80
2008,02,08,05,59,23.70
2008,02,08,06,00,22.90
2008,02,08,06,01,26.70
2008,02,08,06,02,19.10
2008,02,08,06,03,26.00
2008,02,08,06,04,20.50
2008,02,08,06,05,18.50
2008,02,08,06,06,17.70
2008,02,08,06,07,25.60
2008,02,08,06,08,13.30
2008,02,08,06,09,23.40
2008,02,08,06,10,18.60
2008,02,08,06,11,17.10
2008,02,08,06,12,7.50
2008,02,08,06,13,11.50
2008,02,08,06,14,6.10
2008,02,08,06,15,12.90
2008,02,08,06,16,10.40
2008,02,08,06,17,11.10
2008,02,08,06,18,20.20
2008,02,08,06,19,24.90
2008,02,08,06,20,15.80
2008,02,08,06,21,14.60
2008,02,08,06,22,24.30
2008,02,08,06,23,16.40
2008,02,08,06,24,24.20
2008,02,08,06,25,18.30
2008,02,08,06,26,14.50
2008,02,08,06,27,16.50
2008,02,08,06,28,27.00
2008,02,08,06,29,17.20
2008,02,08,06,30,19.90
2008,02,08,06,31,18.20
2008,02,08,06,32,15.50
2008,02,08,06,33,19.30
2008,02,08,06,34,21.40
2008,02,08,06,35,16.40
2008,02,08,06,36,26.60
2008,02,08,06,37,16.20
2008,02,08,06,38,17.10
2008,02,08,06,39,21.40
2008,02,08,06,40,22.40
2008,02,08,06,41,9.40
2008,02,08,06,42,19.70
2008,02,08,06,43,17.50
2008,02,08,06,44,18.90
2008,02,08,06,45,16.20
2008,02,08,06,46,18.60
2008,02,08,06,47,13.80
2008,02,08,06,48,13.50
2008,02,08,06,49,12.10
2008,02,08,06,50,9.80
2008,02,08,06,51,19.60
2008,02,08,06,52,17.50
2008,02,08,06,53,11.00
2008,02,08,06,54,13.00
2008,02,08,06,55,5.30
2008,02,08,06,56,7.10
2008,02,08,06,57,6.50
2008,02,08,06,58,6.90
2008,02,08,06,59,12.40
2008,02,08,07,00,11.80
2008,02,08,07,01,11.00
2008,02,08,07,02,15.20
2008,02,08,07,03,20.10
2008,02,08,07,04,11.80
2008,02,08,07,05,14.70
2008,02,08,07,06,9.70
2008,02,08,07,07,19.60
2008,02,08,07,08,17.90
2008,02,08,07,09,12.70
2008,02,08,07,10,13.40
2008,02,08,07,11,14.30
2008,02,08,07,12,17.60
2008,02,08,07,13,20.80
2008,02,08,07,14,16.10
2008,02,08,07,15,14.50
2008,02,08,07,16,13.20
2008,02,08,07,17,17.00
2008,02,08,07,18,7.70
2008,02,08,07,19,14.10
2008,02,08,07,20,15.00
2008,02,08,07,21,26.00
2008,02,08,07,22,19.50
2008,02,08,07,23,13.80
2008,02,08,07,24,20.40
2008,02,08,07,25,16.20
2008,02,08,07,26,27.40
2008,02,08,07,27,15.80
2008,02,08,07,28,22.70
2008,02,08,07,29,21.70
2008,02,08,07,30,13.30
2008,02,08,07,31,14.70
2008,02,08,07,32,19.60
2008,02,08,07,33,21.20
2008,02,08,07,34,16.80
2008,02,08,07,35,15.70
2008,02,08,07,36,13.00
2008,02,08,07,37,16.10
2008,02,08,07,38,12.30
2008,02,08,07,39,9.00
2008,02,08,07,40,10.50
2008,02,08,07,41,15.10
2008,02,08,07,42,20.20
2008,02,08,07,43,16.50
2008,02,08,07,44,14.20
2008,02,08,07,45,23.50
2008,02,08,07,46,19.00
2008,02,08,07,47,22.70
2008,02,08,07,48,21.10
2008,02,08,07,49,11.80
2008,02,08,07,50,17.40
2008,02,08,07,51,19.50
2008,02,08,07,52,22.40
2008,02,08,07,53,21.70
2008,02,08,07,54,19.60
2008,02,08,07,55,22.20
2008,02,08,07,56,18.30
2008,02,08,07,57,18.50
2008,02,08,07,58,18.80
2008,02,08,07,59,13.40
2008,02,08,08,00,21.10
2008,02,08,08,01,23.30
2008,02,08,08,02,23.20
2008,02,08,08,03,15.30
2008,02,08,08,04,17.90
2008,02,08,08,05,15.90
2008,02,08,08,06,25.20
2008,02,08,08,07,23.40
2008,02,08,08,08,18.10
2008,02,08,08,09,13.50
2008,02,08,08,10,17.40
2008,02,08,08,11,23.90
2008,02,08,08,12,24.90
2008,02,08,08,13,19.60
2008,02,08,08,14,18.90
2008,02,08,08,15,25.50
2008,02,08,08,16,18.90
2008,02,08,08,17,17.90
2008,02,08,08,18,34.20
2008,02,08,08,19,30.50
2008,02,08,08,20,19.10
2008,02,08,08,21,16.60
2008,02,08,08,22,24.00
2008,02,08,08,23,6.70
2008,02,08,08,24,11.20
2008,02,08,08,25,13.00
2008,02,08,08,26,22.10
2008,02,08,08,27,22.30
2008,02,08,08,28,22.50
2008,02,08,08,29,22.50
2008,02,08,08,30,16.30
2008,02,08,08,31,20.70
2008,02,08,08,32,24.10
2008,02,08,08,33,16.00
2008,02,08,08,34,18.00
2008,02,08,08,35,23.30
2008,02,08,08,36,23.70
2008,02,08,08,37,17.30
2008,02,08,08,38,19.40
2008,02,08,08,39,28.30
2008,02,08,08,40,20.00
2008,02,08,08,41,13.90
2008,02,08,08,42,17.10
2008,02,08,08,43,13.60
2008,02,08,08,44,18.80
2008,02,08,08,45,16.50
2008,02,08,08,46,17.60
2008,02,08,08,47,18.60
2008,02,08,08,48,14.70
2008,02,08,08,49,22.10
2008,02,08,08,50,17.30
2008,02,08,08,51,24.10
2008,02,08,08,52,19.90
2008,02,08,08,53,18.90
2008,02,08,08,54,22.80
2008,02,08,08,55,19.20
2008,02,08,08,56,15.10
2008,02,08,08,57,14.20
2008,02,08,08,58,16.30
2008,02,08,08,59,13.50
2008,02,08,09,00,20.20
2008,02,08,09,01,19.10
2008,02,08,09,02,22.10
2008,02,08,09,03,22.80
2008,02,08,09,04,15.60
2008,02,08,09,05,17.70
2008,02,08,09,06,17.20
2008,02,08,09,07,11.00
2008,02,08,09,08,17.10
2008,02,08,09,09,16.10
2008,02,08,09,10,17.30
2008,02,08,09,11,13.50
2008,02,08,09,12,18.10
2008,02,08,09,13,19.80
2008,02,08,09,14,21.70
2008,02,08,09,15,18.30
2008,02,08,09,16,20.60
2008,02,08,09,17,17.10
2008,02,08,09,18,22.10
2008,02,08,09,19,14.80
2008,02,08,09,20,19.10
2008,02,08,09,21,8.30
2008,02,08,09,22,16.60
2008,02,08,09,23,20.80
2008,02,08,09,24,21.50
2008,02,08,09,25,19.90
2008,02,08,09,26,24.70
2008,02,08,09,27,19.60
2008,02,08,09,28,15.90
2008,02,08,09,29,24.20
2008,02,08,09,30,20.50
2008,02,08,09,31,23.30
2008,02,08,09,32,21.90
2008,02,08,09,33,27.50
2008,02,08,09,34,19.10
2008,02,08,09,35,18.90
2008,02,08,09,36,15.90
2008,02,08,09,37,17.80
2008,02,08,09,38,21.90
2008,02,08,09,39,22.20
2008,02,08,09,40,27.50
2008,02,08,09,41,22.00
2008,02,08,09,42,20.90
2008,02,08,09,43,24.40
2008,02,08,09,44,15.90
2008,02,08,09,45,15.40
2008,02,08,09,46,22.20
2008,02,08,09,47,14.00
2008,02,08,09,48,19.80
2008,02,08,09,49,29.90
2008,02,08,09,50,18.70
2008,02,08,09,51,26.10
2008,02,08,09,52,20.80
2008,02,08,09,53,22.00
2008,02,08,09,54,23.90
2008,02,08,09,55,26.80
2008,02,08,09,56,24.10
2008,02,08,09,57,21.00
2008,02,08,09,58,20.10
2008,02,08,09,59,21.00
2008,02,08,10,00,19.90
2008,02,08,10,01,24.20
2008,02,08,10,02,22.50
2008,02,08,10,03,20.10
2008,02,08,10,04,28.60
2008,02,08,10,05,22.90
2008,02,08,10,06,20.30
2008,02,08,10,07,18.90
2008,02,08,10,08,18.30
2008,02,08,10,09,22.20
2008,02,08,10,10,19.70
2008,02,08,10,11,26.10
2008,02,08,10,12,20.50
2008,02,08,10,13,16.60
2008,02,08,10,14,18.30
2008,02,08,10,15,22.40
2008,02,08,10,16,27.10
2008,02,08,10,17,18.50
2008,02,08,10,18,27.10
2008,02,08,10,19,18.90
2008,02,08,10,20,27.70
2008,02,08,10,21,18.10
2008,02,08,10,22,25.50
2008,02,08,10,23,28.60
2008,02,08,10,24,27.50
2008,02,08,10,25,23.30
2008,02,08,10,26,16.00
2008,02,08,10,27,23.30
2008,02,08,10,28,27.90
2008,02,08,10,29,27.80
2008,02,08,10,30,25.80
2008,02,08,10,31,22.50
2008,02,08,10,32,26.90
2008,02,08,10,33,18.60
2008,02,08,10,34,26.40
2008,02,08,10,35,24.10
2008,02,08,10,36,18.80
2008,02,08,10,37,22.40
2008,02,08,10,38,26.10
2008,02,08,10,39,27.80
2008,02,08,10,40,23.40
2008,02,08,10,41,14.20
2008,02,08,10,42,15.30
2008,02,08,10,43,18.60
2008,02,08,10,44,25.40
2008,02,08,10,45,19.00
2008,02,08,10,46,12.90
2008,02,08,10,47,18.20
2008,02,08,10,48,20.50
2008,02,08,10,49,20.90
2008,02,08,10,50,19.60
2008,02,08,10,51,18.50
2008,02,08,10,52,12.30
2008,02,08,10,53,17.70
2008,02,08,10,54,23.90
2008,02,08,10,55,22.00
2008,02,08,10,56,14.30
2008,02,08,10,57,17.80
2008,02,08,10,58,27.80
2008,02,08,10,59,17.10
2008,02,08,11,00,27.80
2008,02,08,11,01,24.10
2008,02,08,11,02,16.40
2008,02,08,11,03,19.00
2008,02,08,11,04,20.10
2008,02,08,11,05,22.80
2008,02,08,11,06,27.20
2008,02,08,11,07,26.30
2008,02,08,11,08,27.20
2008,02,08,11,09,21.20
2008,02,08,11,10,24.20
2008,02,08,11,11,20.90
2008,02,08,11,12,18.50
2008,02,08,11,13,22.00
2008,02,08,11,14,24.70
2008,02,08,11,15,26.10
2008,02,08,11,16,13.40
2008,02,08,11,17,23.30
2008,02,08,11,18,23.70
2008,02,08,11,19,20.00
2008,02,08,11,20,25.00
2008,02,08,11,21,21.90
2008,02,08,11,22,18.50
2008,02,08,11,23,29.30
2008,02,08,11,24,21.30
2008,02,08,11,25,14.70
2008,02,08,11,26,8.90
2008,02,08,11,27,19.10
2008,02,08,11,28,26.10
2008,02,08,11,29,15.70
2008,02,08,11,30,24.30
2008,02,08,11,31,19.90
2008,02,08,11,32,23.70
2008,02,08,11,33,19.60
2008,02,08,11,34,22.60
2008,02,08,11,35,16.90
2008,02,08,11,36,14.40
2008,02,08,11,37,16.50
2008,02,08,11,38,20.70
2008,02,08,11,39,15.80
2008,02,08,11,40,23.60
2008,02,08,11,41,14.10
2008,02,08,11,42,11.50
2008,02,08,11,43,19.50
2008,02,08,11,44,24.10
2008,02,08,11,45,16.80
2008,02,08,11,46,24.60
2008,02,08,11,47,18.60
2008,02,08,11,48,17.40
2008,02,08,11,49,20.00
2008,02,08,11,50,17.50
2008,02,08,11,51,17.90
2008,02,08,11,52,17.20
2008,02,08,11,53,18.60
2008,02,08,11,54,16.20
2008,02,08,11,55,19.00
2008,02,08,11,56,21.10
2008,02,08,11,57,16.70
2008,02,08,11,58,28.20
2008,02,08,11,59,18.40
2008,02,08,12,00,15.20
2008,02,08,12,01,11.10
2008,02,08,12,02,17.10
2008,02,08,12,03,20.00
2008,02,08,12,04,23.40
2008,02,08,12,05,17.30
2008,02,08,12,06,18.50
2008,02,08,12,07,17.20
2008,02,08,12,08,18.70
2008,02,08,12,09,17.10
2008,02,08,12,10,22.40
2008,02,08,12,11,17.00
2008,02,08,12,12,15.80
2008,02,08,12,13,14.40
2008,02,08,12,14,18.00
2008,02,08,12,15,13.00
2008,02,08,12,16,14.70
2008,02,08,12,17,24.10
2008,02,08,12,18,21.50
2008,02,08,12,19,18.70
2008,02,08,12,20,21.60
2008,02,08,12,21,18.70
2008,02,08,12,22,24.40
2008,02,08,12,23,22.70
2008,02,08,12,24,15.90
2008,02,08,12,25,14.80
2008,02,08,12,26,22.40
2008,02,08,12,27,15.20
2008,02,08,12,28,14.40
2008,02,08,12,29,15.80
2008,02,08,12,30,13.50
2008,02,08,12,31,18.40
2008,02,08,12,32,20.00
2008,02,08,12,33,10.50
2008,02,08,12,34,19.60
2008,02,08,12,35,13.00
2008,02,08,12,36,19.50
2008,02,08,12,37,24.10
2008,02,08,12,38,27.10
2008,02,08,12,39,18.10
2008,02,08,12,40,21.70
2008,02,08,12,41,22.00
2008,02,08,12,42,17.60
2008,02,08,12,43,23.30
2008,02,08,12,44,18.70
2008,02,08,12,45,18.30
2008,02,08,12,46,12.20
2008,02,08,12,47,18.70
2008,02,08,12,48,19.60
2008,02,08,12,49,11.10
2008,02,08,12,50,16.60
2008,02,08,12,51,14.40
2008,02,08,12,52,22.70
2008,02,08,12,53,31.50
2008,02,08,12,54,17.80
2008,02,08,12,55,28.20
2008,02,08,12,56,20.00
2008,02,08,12,57,24.50
2008,02,08,12,58,13.00
2008,02,08,12,59,14.30
2008,02,08,13,00,22.30
2008,02,08,13,01,18.60
2008,02,08,13,02,21.10
2008,02,08,13,03,11.50
2008,02,08,13,04,13.30
2008,02,08,13,05,9.00
2008,02,08,13,06,11.90
2008,02,08,13,07,15.80
2008,02,08,13,08,16.50
2008,02,08,13,09,18.00
2008,02,08,13,10,9.80
2008,02,08,13,11,10.10
2008,02,08,13,12,11.00
2008,02,08,13,13,16.70
2008,02,08,13,14,23.00
2008,02,08,13,15,15.70
2008,02,08,13,16,13.30
2008,02,08,13,17,7.50
2008,02,08,13,18,11.80
2008,02,08,13,19,9.20
2008,02,08,13,20,15.60
2008,02,08,13,21,17.20
2008,02,08,13,22,9.70
2008,02,08,13,23,18.30
2008,02,08,13,24,12.10
2008,02,08,13,25,12.70
2008,02,08,13,26,14.20
2008,02,08,13,27,23.70
2008,02,08,13,28,14.00
2008,02,08,13,29,15.10
2008,02,08,13,30,13.00
2008,02,08,13,31,5.70
2008,02,08,13,32,10.10
2008,02,08,13,33,10.20
2008,02,08,13,34,14.50
2008,02,08,13,35,16.40
2008,02,08,13,36,12.30
2008,02,08,13,37,20.90
2008,02,08,13,38,14.40
2008,02,08,13,39,10.60
2008,02,08,13,40,8.50
2008,02,08,13,41,8.20
2008,02,08,13,42,17.60
2008,02,08,13,43,16.60
2008,02,08,13,44,15.50
2008,02,08,13,45,17.80
2008,02,08,13,46,16.40
2008,02,08,13,47,9.70
2008,02,08,13,48,13.90
2008,02,08,13,49,16.50
2008,02,08,13,50,16.50
2008,02,08,13,51,24.80
2008,02,08,13,52,20.80
2008,02,08,13,53,12.40
2008,02,08,13,54,15.40
2008,02,08,13,55,18.80
2008,02,08,13,56,20.80
2008,02,08,13,57,14.60
2008,02,08,13,58,22.40
2008,02,08,13,59,22.90
2008,02,08,14,00,15.60
2008,02,08,14,01,23.80
2008,02,08,14,02,20.50
2008,02,08,14,03,17.90
2008,02,08,14,04,24.20
2008,02,08,14,05,21.40
2008,02,08,14,06,19.00
2008,02,08,14,07,12.70
2008,02,08,14,08,13.90
2008,02,08,14,09,11.30
2008,02,08,14,10,11.30
2008,02,08,14,11,20.30
2008,02,08,14,12,20.40
2008,02,08,14,13,10.40
2008,02,08,14,14,19.60
2008,02,08,14,15,15.70
2008,02,08,14,16,12.80
2008,02,08,14,17,23.20
2008,02,08,14,18,21.50
2008,02,08,14,19,22.20
2008,02,08,14,20,15.10
2008,02,08,14,21,18.90
2008,02,08,14,22,21.20
2008,02,08,14,23,18.80
2008,02,08,14,24,19.50
2008,02,08,14,25,10.10
2008,02,08,14,26,16.70
2008,02,08,14,27,13.90
2008,02,08,14,28,16.80
2008,02,08,14,29,16.30
2008,02,08,14,30,19.70
2008,02,08,14,31,14.10
2008,02,08,14,32,6.70
2008,02,08,14,33,9.80
2008,02,08,14,34,12.60
2008,02,08,14,35,11.00
2008,02,08,14,36,10.10
2008,02,08,14,37,11.80
2008,02,08,14,38,14.70
2008,02,08,14,39,11.00
2008,02,08,14,40,8.40
2008,02,08,14,41,14.40
2008,02,08,14,42,12.50
2008,02,08,14,43,17.30
2008,02,08,14,44,16.80
2008,02,08,14,45,18.10
2008,02,08,14,46,13.30
2008,02,08,14,47,13.60
2008,02,08,14,48,9.80
2008,02,08,14,49,11.70
2008,02,08,14,50,17.60
2008,02,08,14,51,18.80
2008,02,08,14,52,10.00
2008,02,08,14,53,11.10
2008,02,08,14,54,15.40
2008,02,08,14,55,16.50
2008,02,08,14,56,10.50
2008,02,08,14,57,14.30
2008,02,08,14,58,18.90
2008,02,08,14,59,10.50
2008,02,08,15,00,9.90
2008,02,08,15,01,13.40
2008,02,08,15,02,11.70
2008,02,08,15,03,7.60
2008,02,08,15,04,7.50
2008,02,08,15,05,12.00
2008,02,08,15,06,6.10
2008,02,08,15,07,12.80
2008,02,08,15,08,12.10
2008,02,08,15,09,12.60
2008,02,08,15,10,6.40
2008,02,08,15,11,6.00
2008,02,08,15,12,9.20
2008,02,08,15,13,16.10
2008,02,08,15,14,9.00
2008,02,08,15,15,11.00
2008,02,08,15,16,9.40
2008,02,08,15,17,1.70
2008,02,08,15,18,1.60
2008,02,08,15,19,1.60
2008,02,08,15,20,1.60
2008,02,08,15,21,8.40
2008,02,08,15,22,11.30
2008,02,08,15,23,10.30
2008,02,08,15,24,7.90
2008,02,08,15,25,10.20
2008,02,08,15,26,10.40
2008,02,08,15,27,5.90
2008,02,08,15,28,10.00
2008,02,08,15,29,5.00
2008,02,08,15,30,8.00
2008,02,08,15,31,10.80
2008,02,08,15,32,7.10
2008,02,08,15,33,7.90
2008,02,08,15,34,11.20
2008,02,08,15,35,10.70
2008,02,08,15,36,10.40
2008,02,08,15,37,6.50
2008,02,08,15,38,12.30
2008,02,08,15,39,6.30
2008,02,08,15,40,8.70
2008,02,08,15,41,10.50
2008,02,08,15,42,6.10
2008,02,08,15,43,8.30
2008,02,08,15,44,2.70
2008,02,08,15,45,5.60
2008,02,08,15,46,8.20
2008,02,08,15,47,6.00
2008,02,08,15,48,8.30
2008,02,08,15,49,7.60
2008,02,08,15,50,7.50
2008,02,08,15,51,3.90
2008,02,08,15,52,6.00
2008,02,08,15,53,4.40
2008,02,08,15,54,5.30
2008,02,08,15,55,8.70
2008,02,08,15,56,3.80
2008,02,08,15,57,1.20
2008,02,08,15,58,5.40
2008,02,08,15,59,5.00
2008,02,08,16,00,3.00
2008,02,08,16,01,4.60
2008,02,08,16,02,2.80
2008,02,08,16,03,2.00
2008,02,08,16,04,4.00
2008,02,08,16,05,4.40
2008,02,08,16,06,0.90
2008,02,08,16,07,4.70
2008,02,08,16,08,4.20
2008,02,08,16,09,4.80
2008,02,08,16,10,7.50
2008,02,08,16,11,3.70
2008,02,08,16,12,8.90
2008,02,08,16,13,7.00
2008,02,08,16,14,3.00
2008,02,08,16,15,1.10
2008,02,08,16,16,4.60
2008,02,08,16,17,3.90
2008,02,08,16,18,1.70
2008,02,08,16,19,4.20
2008,02,08,16,20,2.00
2008,02,08,16,21,3.00
2008,02,08,16,22,3.00
2008,02,08,16,23,3.20
2008,02,08,16,24,4.30
2008,02,08,16,25,2.50
2008,02,08,16,26,4.20
2008,02,08,16,27,3.20
2008,02,08,16,28,7.70
2008,02,08,16,29,1.40
2008,02,08,16,30,2.80
2008,02,08,16,31,3.90
2008,02,08,16,32,4.00
2008,02,08,16,33,4.70
2008,02,08,16,34,3.60
2008,02,08,16,35,4.40
2008,02,08,16,36,4.10
2008,02,08,16,37,4.60
2008,02,08,16,38,4.80
2008,02,08,16,39,5.00
2008,02,08,16,40,2.70
2008,02,08,16,41,3.10
2008,02,08,16,42,3.70
2008,02,08,16,43,7.30
2008,02,08,16,44,5.90
2008,02,08,16,45,3.20
2008,02,08,16,46,3.50
2008,02,08,16,47,7.50
2008,02,08,16,48,5.90
2008,02,08,16,49,2.40
2008,02,08,16,50,2.50
2008,02,08,16,51,2.70
2008,02,08,16,52,6.10
2008,02,08,16,53,3.10
2008,02,08,16,54,3.30
2008,02,08,16,55,1.70
2008,02,08,16,56,2.90
2008,02,08,16,57,2.60
2008,02,08,16,58,5.60
2008,02,08,16,59,7.30
2008,02,08,17,00,4.40
2008,02,08,17,01,6.00
2008,02,08,17,02,7.60
2008,02,08,17,03,13.80
2008,02,08,17,04,9.40
2008,02,08,17,05,7.00
2008,02,08,17,06,7.50
2008,02,08,17,07,6.90
2008,02,08,17,08,7.80
2008,02,08,17,09,6.40
2008,02,08,17,10,3.90
2008,02,08,17,11,6.20
2008,02,08,17,12,4.90
2008,02,08,17,13,7.60
2008,02,08,17,14,6.80
2008,02,08,17,15,4.70
2008,02,08,17,16,8.60
2008,02,08,17,17,6.20
2008,02,08,17,18,3.50
2008,02,08,17,19,5.10
2008,02,08,17,20,4.20
2008,02,08,17,21,0.40
2008,02,08,17,22,3.70
2008,02,08,17,23,4.90
2008,02,08,17,24,8.40
2008,02,08,17,25,6.30
2008,02,08,17,26,5.20